Flag for Russia Weather past 2 weeks in Krasnodar, Russia

Now
54 °F

Sunny.


Feels Like: 52 °F
Forecast: 44 / 74 °F
Wind: 6 mph from East

Location: Krasnodar Airport

Current Time: Apr 26, 2015 at 8:55:23 AM

Latest Report: Apr 26, 2015 at 8:30 AM


Visibility: 10 mi

Pressure: 30.15 "Hg

Humidity: 54%

Dew point: 37 °F

Location of KrasnodarLocation

Historic Weather in Krasnodar — Graph

°F

Krasnodar temperature yesterday

Maximum temperature yesterday: 64 °F (at 1:00 PM)
Minimum temperature yesterday: 43 °F (at 12:00 AM)
Average temperature yesterday: 53 °F

Past Weeks' High & Low Weather Summary

 TemperatureHumidityPressure
High72 °F (Apr 18, 10:30 AM)100% (Apr 11, 7:30 AM)30.21 "Hg (Apr 11, 7:30 AM)
Low30 °F (Apr 23, 5:30 AM)26% (Apr 17, 11:30 AM)29.62 "Hg (Apr 19, 1:30 PM)
Average50 °F65%30.00 "Hg
* Reported Apr 11 7:00 AM — Apr 26 7:30 AM, Krasnodar, Weather by CustomWeather, © 2015

Note: Actual official high and low records may vary slightly from our data, if they occured in-between our weather recording intervals... More about our weather records

Advertising

Krasnodar weather history for previous 24 hours

 ConditionsComfort  
Time TempWeatherWind HumidityBarometerVisibility
7:30 AM
Sun, Apr 26
48 °FSunny.6 mph76%30.15 "Hg10 mi
7:00 AM46 °FSunny.3 mph82%30.15 "Hg10 mi
6:30 AM46 °FSunny.1 mph82%30.15 "Hg10 mi
6:00 AM41 °FClear.6 mph87%30.15 "Hg10 mi
5:30 AM34 °FClear.6 mph87%30.12 "Hg10 mi
5:00 AM36 °FClear.1 mph87%30.12 "Hg10 mi
4:30 AM39 °FClear.3 mph75%30.12 "Hg10 mi
4:00 AM36 °FClear.3 mph87%30.12 "Hg10 mi
3:30 AM39 °FClear.1 mph75%30.12 "Hg10 mi
3:00 AM37 °FClear.1 mph81%30.12 "Hg10 mi
2:30 AM39 °FClear.3 mph75%30.12 "Hg10 mi
2:00 AM41 °FClear.No wind66%30.15 "Hg10 mi
1:30 AM41 °FClear.1 mph66%30.15 "Hg10 mi
1:00 AM45 °FClear.No wind61%30.15 "Hg10 mi
12:00 AM45 °FClear.No wind53%30.15 "Hg10 mi
11:30 PM
Sat, Apr 25
46 °FClear.3 mph53%30.15 "Hg10 mi
11:00 PM46 °FClear.3 mph50%30.15 "Hg10 mi
10:30 PM48 °FClear.6 mph46%30.15 "Hg10 mi
10:00 PM48 °FClear.6 mph46%30.15 "Hg10 mi
9:30 PM48 °FClear.6 mph50%30.15 "Hg10 mi
9:00 PM50 °FClear.8 mph43%30.15 "Hg10 mi
8:30 PM50 °FClear.10 mph43%30.15 "Hg10 mi
8:00 PM52 °FSunny.10 mph41%30.15 "Hg10 mi
7:30 PM54 °FSunny.8 mph38%30.12 "Hg10 mi
7:00 PM55 °FSunny.10 mph36%30.12 "Hg10 mi
6:30 PM59 °FSunny.10 mph42%30.12 "Hg10 mi
6:00 PM61 °FSunny.13 mph36%30.12 "Hg10 mi
5:30 PM63 °FSunny.15 mph32%30.12 "Hg10 mi
5:00 PM64 °FSunny.15 mph30%30.12 "Hg10 mi
4:30 PM64 °FSunny.15 mph32%30.12 "Hg10 mi
4:00 PM64 °FSunny.15 mph34%30.12 "Hg10 mi
3:30 PM64 °FSunny.17 mph34%30.12 "Hg10 mi
3:00 PM64 °FSunny.15 mph37%30.15 "Hg10 mi
2:30 PM64 °FSunny.15 mph37%30.15 "Hg10 mi
2:00 PM64 °FSunny.15 mph37%30.15 "Hg10 mi
1:30 PM64 °FSunny.15 mph37%30.18 "Hg10 mi
1:00 PM64 °FSunny.15 mph34%30.18 "Hg10 mi
12:30 PM63 °FSunny.15 mph37%30.18 "Hg10 mi
12:00 PM63 °FSunny.15 mph39%30.18 "Hg10 mi
11:30 AM61 °FSunny.15 mph39%30.18 "Hg10 mi
11:00 AM59 °FSunny.15 mph45%30.18 "Hg10 mi
10:30 AM59 °FSunny.15 mph48%30.18 "Hg10 mi
10:00 AM59 °FSunny.17 mph48%30.21 "Hg10 mi
9:30 AM55 °FSunny.17 mph51%30.21 "Hg10 mi
9:00 AM55 °FSunny.20 mph55%30.18 "Hg10 mi
8:30 AM54 °FSunny.15 mph58%30.18 "Hg10 mi
8:00 AM52 °FSunny.15 mph62%30.21 "Hg10 mi
Weather by CustomWeather, © 2015

See weather overviewHow to use our weather pages